User: anonymous   Login
Location: Briis
(48.6240°N, 2.1211°E)
Time: 14:39:05
(UTC+00:00)
Language:

COSMOS 2251 DEB - Orbit

View from above orbital plane
View from above orbital plane
View from above satellite
View from above satellite

Ground track
Ground track

The orbit data is extracted from the following two-line orbital elements,

1 39582U 93036BUM 21108.10990433  .00000970  00000-0  19666-3 0  9996
2 39582  74.0201 263.2276 0074836  73.9803 286.9589 14.60911012455566
Epoch (UTC): 18 April 2021 02:38:15
Eccentricity: 0.0074836
inclination: 74.0201°
perigee height: 637 km
apogee height: 743 km
right ascension of ascending node: 263.2276°
argument of perigee: 73.9803°
revolutions per day: 14.60911012
mean anomaly at epoch: 286.9589°
orbit number at epoch: 45556

The dashed part of the orbit path shows where the satellite is in the earth's shadow,  

DLR